This is the latest recevied weather packets stored in our database for station/object KE4EST. If no packets are shown the sender has not sent any weather packets the latest 10 day(s).
| Time | Temp. | Humidity | Pressure | Rain* | Wind** | Luminosity | Snow |
|---|---|---|---|---|---|---|---|
| 1777818452 | 11.67° C | 64% | 1021 hPa | 0 mm | - | 42 W/m² | - |
| 1777818149 | 11.67° C | 63% | 1020.9 hPa | 0 mm | - | 52 W/m² | - |
| 1777817845 | 10.56° C | 63% | 1021 hPa | 0 mm | - | 178 W/m² | - |
| 1777817543 | 10.56° C | 68% | 1020.8 hPa | 0 mm | - | 172 W/m² | - |
| 1777817239 | 10.56° C | 70% | 1020.9 hPa | 0 mm | - | 38 W/m² | - |
| 1777816937 | 10.56° C | 72% | 1020.9 hPa | 0 mm | - | 41 W/m² | - |
| 1777816633 | 10° C | 71% | 1020.9 hPa | 0 mm | - | 39 W/m² | - |
| 1777816330 | 10° C | 77% | 1020.8 hPa | 0 mm | - | 43 W/m² | - |
| 1777816027 | 9.44° C | 76% | 1020.9 hPa | 0 mm | - | 59 W/m² | - |
| 1777815725 | 9.44° C | 79% | 1021 hPa | 0 mm | - | 80 W/m² | - |
| 1777815422 | 8.89° C | 80% | 1021 hPa | 0 mm | - | 86 W/m² | - |
| 1777815119 | 8.33° C | 81% | 1020.8 hPa | 0 mm | - | 79 W/m² | - |
| 1777814815 | 7.78° C | 85% | 1020.8 hPa | 0 mm | - | 85 W/m² | - |
| 1777814512 | 7.22° C | 90% | 1020.8 hPa | 0 mm | - | 32 W/m² | - |
| 1777814209 | 6.67° C | 89% | 1020.9 hPa | 0 mm | - | 31 W/m² | - |
| 1777813906 | 6.67° C | 91% | 1020.8 hPa | 0 mm | - | 30 W/m² | - |
| 1777813604 | 6.11° C | 92% | 1020.8 hPa | 0 mm | - | 29 W/m² | - |
| 1777813301 | 5.56° C | 94% | 1021 hPa | 0 mm | - | 29 W/m² | - |
| 1777812998 | 5.56° C | 94% | 1020.8 hPa | 0 mm | - | 28 W/m² | - |
| 1777812696 | 5° C | 96% | 1020.8 hPa | 0 mm | - | 27 W/m² | - |
| 1777812392 | 5° C | 98% | 1020.9 hPa | 0 mm | - | 27 W/m² | - |
| 1777812091 | 5° C | 99% | 1020.9 hPa | 0 mm | - | 29 W/m² | - |
| 1777811789 | 5° C | 99% | 1020.8 hPa | 0 mm | - | 27 W/m² | - |
| 1777811486 | 4.44° C | 99% | 1020.8 hPa | 0 mm | - | 24 W/m² | - |
| 1777811181 | 4.44° C | 99% | 1020.8 hPa | 0 mm | - | 24 W/m² | - |
* Rain latest hour (hover to see other rain measurements)
** Current wind speed in m/s (hover to see current wind gust speed)